Regional Weather Roundup
Issued by NWS Portland, ME

Home | Current Version | Previous Version | Text Only | Print | Product List | Glossary On
Versions: 1 2 3 4 5 6 7 8 9 10 11 12 13 14 15 16 17 18 19 20 21 22 23 24 25 26 27 28 29 30 31 32 33 34 35 36 37 38 39 40 41 42 43 44 45 46 47 48 49 50
840
ASUS41 KGYX 250010
RWRGYX
WEATHER ROUNDUP FOR MAINE AND NEW HAMPSHIRE
NATIONAL WEATHER SERVICE GRAY ME
700 PM EST TUE JAN 24 2017

MEZ002-005-006-010-012-015-018-020-021-024-026-027-029-250100-
MAINE

CITY           SKY/WX    TMP DP  RH WIND       PRES   REMARKS
PORTLAND       LGT RAIN  33  31  92 N17G25    29.34F
6HR MIN TEMP:  31; 6HR MAX TEMP:  33; 6HR PCP:  0.53;

SANFORD        LGT RAIN  33  31  92 N16       29.35R
BAR HARBOR     RAIN      37  35  92 NE24G32   29.40F
WISCASSET      RAIN      35  33  92 VRB5      29.37F FOG
6HR MIN TEMP:  34; 6HR MAX TEMP:  35;

ROCKLAND       RAIN      36  35  96 NE15G28   29.33F FOG
FRYEBURG       LGT SNOW  33  31  92 N7G18     29.42F FOG
6HR MIN TEMP:  31; 6HR MAX TEMP:  33; 6HR PCP:  0.08;

LEWISTONAUBURN LGT RAIN  33  31  92 N20G28    29.38F
AUGUSTA        FRZ RAIN  32  29  88 N15G26    29.41F FOG
6HR MIN TEMP:  28; 6HR MAX TEMP:  32; 6HR PCP:  0.41;

WATERVILLE     MIX PCPN  32  31  96 NE16G28   29.40F FOG
BANGOR         LGT RAIN  34  32  92 NE17      29.46F
6HR MIN TEMP:  29; 6HR MAX TEMP:  34;

GREENVILLE       N/A     31  30  96 E15G31    29.47F
6HR MIN TEMP:  26; 6HR MAX TEMP:  32; 6HR PCP:  0.56;

MILLINOCKET    LGT SNOW  29  26  89 NE13G24   29.60F FOG     WCI  19
6HR MIN TEMP:  26; 6HR MAX TEMP:  29; 6HR PCP:  0.40;

HOULTON        CLOUDY    33  30  88 E14G22    29.62F
6HR MIN TEMP:  28; 6HR MAX TEMP:  33; 6HR PCP:  0.51;

PRESQUE ISLE   LGT SNOW  28  25  88 NE16G24   29.71F FOG     WCI  16
6HR MIN TEMP:  26; 6HR MAX TEMP:  28; 6HR PCP:  0.26;

FRENCHVILLE    MIX PCPN  25  20  81 NE17G28   29.74F WCI  12
6HR MIN TEMP:  23; 6HR MAX TEMP:  25; 6HR PCP:  0.16;

CARIBOU        MIX PCPN  28  24  85 NE17G26   29.71F FOG     WCI  16
6HR MIN TEMP:  26; 6HR MAX TEMP:  28; 6HR PCP:  0.30;

$$

NHZ002-005-008-009-011-012-014-250100-
NEW HAMPSHIRE

CITY           SKY/WX    TMP DP  RH WIND       PRES   REMARKS
PORTSMOUTH     LGT RAIN  34  31  89 N18G24    29.32F FOG
ROCHESTER      LGT RAIN  33  30  88 N12       29.35S
6HR MIN TEMP:  32; 6HR MAX TEMP:  33; 6HR PCP:  0.02;

NASHUA         MIX PCPN  34  33  96 NW12      29.35S
MANCHESTER     LGT RAIN  34  30  85 N15       29.34F
6HR MIN TEMP:  34; 6HR MAX TEMP:  36; 6HR PCP:  0.02;

CONCORD        CLOUDY    34  30  85 N8        29.37F
6HR MIN TEMP:  34; 6HR MAX TEMP:  35; 6HR PCP: TRACE;

LACONIA        LGT RAIN  35  31  85 E9        29.39S
PLYMOUTH       MIX PCPN  35  33  92 W5        29.39F
BERLIN         MIX PCPN  31  27  85 N8        29.44F FOG
6HR MIN TEMP:  31; 6HR MAX TEMP:  34; 6HR PCP:  0.13;

WHITEFIELD     LGT RAIN  34  28  79 E12       29.40F
6HR MIN TEMP:  34; 6HR MAX TEMP:  35; 6HR PCP:  0.04;

JAFFREY        CLOUDY    33  30  88 VRB6      29.33F
6HR MIN TEMP:  31; 6HR MAX TEMP:  33; 6HR PCP:  0.02;

KEENE          MIX PCPN  34  32  93 N9        29.38F
LEBANON        CLOUDY    35  34  96 CALM      29.42S FOG
6HR MIN TEMP:  34; 6HR MAX TEMP:  36; 6HR PCP:  0.05;

MT WASHINGTON  FRZ RAIN  27  27 100 E29         N/A  VSB 1/8 WCI  11
6HR MIN TEMP:  19; 6HR MAX TEMP:  27; 6HR PCP:  0.26;

$$

VTZ005-007-008-250100-
VERMONT

CITY           SKY/WX    TMP DP  RH WIND       PRES   REMARKS
ST JOHNSBURY     N/A     34  33  96 MISG      29.42F
MONTPELIER     FRZ RAIN  31  31 100 NW7       29.47F
BURLINGTON     CLOUDY    29  27  92 NW13      29.53R WCI  19
$$

MAZ007-012-024-CTZ003-RIZ002-NYZ038-NYZ072-250100-
SOUTHERN NEW ENGLAND AND NY

CITY           SKY/WX    TMP DP  RH WIND       PRES   REMARKS
WORCESTER      FRZ RAIN  32  30  92 N18G26    29.29R FOG
NANTUCKET      LGT RAIN  49  48  97 VRB3      29.14R VSB 3/4
PROVIDENCE     CLOUDY    37  34  89 N21G29    29.25S
HARTFORD       LGT RAIN  35  33  92 N13       29.36R FOG
ALBANY         LGT SNOW  33  31  92 N6        29.49S FOG
NEW YORK CITY  LGT RAIN  41  35  79 NW16      29.39R
$$

ANZ081-ANZ082-ANZ150-NHZ014-MEZ023>029-250100-
COASTAL MARINE OBSERVATIONS

STATION/POSITION TIME  TEMP    WIND        PRES    WAVE
                       AIR SEA DIR/SP/G            HT/PER
                 (UTC) (F)     (DEG/KT/KT) (MB)    (FT/S)
MOUNT DESERT ROC 0000   43                  991.2F
MATINICUS ROCK   2300   42      60/ 35/ 39  991.5F
ISLE OF SHOALS   2300   36      10/ 29/ 32  992.4R
CASHES LEDGE BUO 2350   45 46   40/ 14/ 17  989.1F  20/11
GEORGES BANK BUO 2350   49 43               988.5F  18/11
$$

.............KEY..............
   WCI - WIND CHILL
   TC  - TEMPERATURE IN CELSIUS
   VSB - VISIBILITY IN MILES
   HX  - HEAT INDEX
   FAIR- INDICATES FEW OR NO CLOUDS BELOW 12,000 FT, WITH NO
         SIGNIFICANT WEATHER AND/OR OBSTRUCTIONS TO VISIBILITY.






USA.gov is the U.S. government's official web portal to all federal, state and local government web resources and services.